WD6FGE Weather Reports


Display with metric or nautical units.
time (UTC)temp
F
wind
direction
speed
MPH
gust
MPH
rain 1hr
in
rain 24hr
in
rain mn
in
humidity
%
barometer
mb
20211017133556 29 199 0.0 4.0 0.00 0.00 0.00 70 1009.9
20211017132601 29 239 0.0 1.0 0.00 0.00 0.00 69 1009.8
20211017131536 30 239 0.0 1.0 0.00 0.00 0.00 70 1009.8
20211017130553 30 233 0.0 1.0 0.00 0.00 0.00 70 1010.0
20211017125604 30 205 0.0 4.0 0.00 0.00 0.00 69 1010.0
20211017124619 30 228 1.0 0.0 0.00 0.00 0.00 67 1010.1
20211017123638 30 225 1.0 5.0 0.00 0.00 0.00 66 1010.3
20211017122630 31 167 0.0 3.0 0.00 0.00 0.00 64 1010.4
20211017121615 32 146 0.0 1.0 0.00 0.00 0.00 64 1010.5
20211017120600 32 148 0.0 3.0 0.00 0.00 0.00 65 1010.6
20211017115611 32 121 0.0 2.0 0.00 0.00 0.00 65 1010.7
20211017114606 32 189 0.0 3.0 0.00 0.00 0.00 63 1010.8
20211017113601 32 179 0.0 3.0 0.00 0.00 0.00 64 1010.8
20211017112537 32 246 1.0 7.0 0.00 0.00 0.00 64 1011.0
20211017111531 32 180 1.0 7.0 0.00 0.00 0.00 63 1010.9
20211017110521 33 240 1.0 3.0 0.00 0.00 0.00 63 1011.1
20211017105525 33 115 0.0 1.0 0.00 0.00 0.00 62 1011.2
20211017104541 33 115 0.0 1.0 0.00 0.00 0.00 62 1011.4
20211017103521 33 169 0.0 1.0 0.00 0.00 0.00 61 1011.5
20211017102544 34 296 0.0 3.0 0.00 0.00 0.00 59 1011.6
20211017101557 34 279 0.0 3.0 0.00 0.00 0.00 59 1011.9
20211017100600 35 348 0.0 2.0 0.00 0.00 0.00 60 1012.0
20211017095554 35 348 0.0 4.0 0.00 0.00 0.00 59 1012.2
20211017094550 35 216 0.0 4.0 0.00 0.00 0.00 58 1012.5
20211017093538 35 332 0.0 0.0 0.00 0.00 0.00 59 1012.5
20211017092526 35 306 0.0 0.0 0.00 0.00 0.00 59 1012.7
20211017091451 35 83 0.0 2.0 0.00 0.00 0.00 58 1012.6
20211017090516 35 152 0.0 0.0 0.00 0.00 0.00 56 1012.8
20211017085511 36 152 0.0 0.0 0.00 0.00 0.00 56 1012.9
20211017084449 36 152 0.0 1.0 0.00 0.00 0.00 56 1012.9
20211017083436 37 111 0.0 1.0 0.00 0.00 0.00 56 1013.0
20211017082406 37 111 0.0 2.0 0.00 0.00 0.00 54 1013.0
20211017081425 38 112 0.0 1.0 0.00 0.00 0.00 53 1013.1
20211017080431 38 112 0.0 1.0 0.00 0.00 0.00 52 1013.2
20211017075425 39 112 0.0 0.0 0.00 0.00 0.00 52 1013.3
20211017074419 39 112 0.0 0.0 0.00 0.00 0.00 50 1013.4
20211017073440 40 112 0.0 0.0 0.00 0.00 0.00 49 1013.5
20211017072439 41 112 0.0 1.0 0.00 0.00 0.00 47 1013.5
20211017071424 42 113 0.0 0.0 0.00 0.00 0.00 47 1013.6
20211017070403 42 113 0.0 0.0 0.00 0.00 0.00 48 1013.8
20211017065356 42 113 0.0 1.0 0.00 0.00 0.00 49 1013.8
20211017064349 42 113 1.0 2.0 0.00 0.00 0.00 47 1013.9
20211017063347 42 173 0.0 0.0 0.00 0.00 0.00 47 1013.9
20211017062401 43 173 0.0 1.0 0.00 0.00 0.00 44 1013.9
20211017061352 44 173 0.0 1.0 0.00 0.00 0.00 44 1013.8
20211017060327 44 182 0.0 0.0 0.00 0.00 0.00 45 1013.8
20211017055349 44 182 0.0 0.0 0.00 0.00 0.00 43 1013.8
20211017054325 44 182 0.0 0.0 0.00 0.00 0.00 42 1013.9
20211017053320 45 182 0.0 2.0 0.00 0.00 0.00 43 1013.8
20211017052339 45 178 0.0 0.0 0.00 0.00 0.00 41 1013.7
20211017051330 46 327 1.0 3.0 0.00 0.00 0.00 40 1013.8
20211017050317 46 327 1.0 2.0 0.00 0.00 0.00 39 1013.6
20211017045313 47 327 0.0 3.0 0.00 0.00 0.00 37 1013.7
20211017044251 48 327 1.0 3.0 0.00 0.00 0.00 37 1013.6
20211017043236 49 325 0.0 1.0 0.00 0.00 0.00 37 1013.7
20211017042207 50 325 0.0 2.0 0.00 0.00 0.00 34 1013.7
20211017041135 52 325 1.0 2.0 0.00 0.00 0.00 34 1013.6
20211017040122 52 301 1.0 2.0 0.00 0.00 0.00 33 1013.7
20211017035049 54 299 1.0 2.0 0.00 0.00 0.00 32 1013.7
20211017034021 55 298 0.0 1.0 0.00 0.00 0.00 31 1013.7
20211017033045 57 297 0.0 0.0 0.00 0.00 0.00 29 1013.7
20211017032022 57 297 0.0 0.0 0.00 0.00 0.00 30 1013.6
20211017031023 57 297 0.0 2.0 0.00 0.00 0.00 30 1013.6
20211017030026 57 317 0.0 4.0 0.00 0.00 0.00 31 1013.7
20211017024959 58 287 0.0 3.0 0.00 0.00 0.00 29 1013.6
20211017024017 59 188 1.0 6.0 0.00 0.00 0.00 28 1013.5
20211017023006 59 274 0.0 3.0 0.00 0.00 0.00 28 1013.3
20211017022018 60 285 0.0 3.0 0.00 0.00 0.00 27 1013.2
20211017020954 62 248 1.0 5.0 0.00 0.00 0.00 26 1013.2
20211017020012 62 250 0.0 5.0 0.00 0.00 0.00 27 1013.0
20211017014951 63 192 1.0 4.0 0.00 0.00 0.00 26 1012.9
20211017013930 64 252 1.0 5.0 0.00 0.00 0.00 26 1013.0
20211017012919 65 267 1.0 6.0 0.00 0.00 0.00 26 1013.0
20211017011942 66 291 1.0 6.0 0.00 0.00 0.00 26 1013.1
20211017011006 68 250 2.0 9.0 0.00 0.00 0.00 25 1013.0
20211017010002 69 241 3.0 9.0 0.00 0.00 0.00 23 1012.8
20211017004938 70 234 3.0 9.0 0.00 0.00 0.00 22 1012.7
20211017004001 71 216 3.0 12.0 0.00 0.00 0.00 21 1012.8
20211017003019 72 295 4.0 12.0 0.00 0.00 0.00 21 1012.8
20211017001945 73 276 4.0 11.0 0.00 0.00 0.00 20 1013.1
20211017000955 75 264 3.0 12.0 0.00 0.00 0.00 19 1013.1
20211016235948 76 258 3.0 12.0 0.00 0.00 0.00 19 1013.0
20211016234917 76 220 3.0 10.0 0.00 0.00 0.00 19 1013.2
20211016233921 77 350 3.0 10.0 0.00 0.00 0.00 18 1013.2
20211016232908 77 250 2.0 8.0 0.00 0.00 0.00 19 1013.3
20211016231857 77 331 1.0 9.0 0.00 0.00 0.00 19 1013.3
20211016230830 78 257 3.0 9.0 0.00 0.00 0.00 19 1013.3
20211016225756 78 294 2.0 7.0 0.00 0.00 0.00 19 1013.5
20211016224730 78 287 1.0 14.0 0.00 0.00 0.00 19 1013.7
20211016223703 78 248 2.0 14.0 0.00 0.00 0.00 19 1013.8
20211016222726 78 347 1.0 6.0 0.00 0.00 0.00 19 1013.9
20211016221714 79 19 1.0 6.0 0.00 0.00 0.00 19 1014.0
20211016220654 78 297 1.0 5.0 0.00 0.00 0.00 20 1014.1
20211016215657 79 355 2.0 9.0 0.00 0.00 0.00 19 1014.4
20211016214626 79 224 2.0 9.0 0.00 0.00 0.00 20 1014.6
20211016213616 78 329 1.0 5.0 0.00 0.00 0.00 20 1014.7
20211016212557 77 215 2.0 5.0 0.00 0.00 0.00 20 1015.0
20211016211523 77 348 2.0 9.0 0.00 0.00 0.00 19 1015.3
20211016210546 76 355 3.0 9.0 0.00 0.00 0.00 21 1015.7
20211016205536 74 261 3.0 7.0 0.00 0.00 0.00 22 1016.0
20211016204600 74 215 2.0 5.0 0.00 0.00 0.00 21 1016.3
20211016203614 73 304 0.0 4.0 0.00 0.00 0.00 21 1016.6
20211016202625 72 234 2.0 6.0 0.00 0.00 0.00 21 1016.9
20211016201637 71 178 3.0 6.0 0.00 0.00 0.00 21 1017.1
20211016200640 70 181 1.0 5.0 0.00 0.00 0.00 21 1017.4
20211016195700 69 161 2.0 4.0 0.00 0.00 0.00 22 1017.7
20211016194710 68 163 1.0 6.0 0.00 0.00 0.00 23 1017.9
20211016193652 67 123 3.0 6.0 0.00 0.00 0.00 23 1018.2
20211016192658 66 192 3.0 5.0 0.00 0.00 0.00 24 1018.5
20211016191709 66 198 2.0 5.0 0.00 0.00 0.00 24 1018.8
20211016190732 64 147 1.0 5.0 0.00 0.00 0.00 26 1019.0
20211016185756 63 171 2.0 5.0 0.00 0.00 0.00 27 1019.2
20211016184749 61 168 1.0 4.0 0.00 0.00 0.00 29 1019.4
20211016183724 60 171 1.0 5.0 0.00 0.00 0.00 30 1019.6
20211016182748 59 247 1.0 5.0 0.00 0.00 0.00 30 1019.9
20211016181739 58 217 1.0 4.0 0.00 0.00 0.00 32 1020.1
20211016180742 57 171 1.0 3.0 0.00 0.00 0.00 33 1020.2
20211016175756 56 175 2.0 4.0 0.00 0.00 0.00 34 1020.4
20211016174757 54 184 1.0 4.0 0.00 0.00 0.00 37 1020.6
20211016173804 53 216 1.0 3.0 0.00 0.00 0.00 39 1020.8
20211016172813 51 173 1.0 3.0 0.00 0.00 0.00 43 1021.0
20211016171751 49 185 1.0 2.0 0.00 0.00 0.00 44 1021.1
20211016170729 47 197 1.0 3.0 0.00 0.00 0.00 47 1021.4
20211016165743 46 191 1.0 3.0 0.00 0.00 0.00 50 1021.6
20211016164745 43 193 0.0 2.0 0.00 0.00 0.00 54 1021.8
20211016163717 41 204 0.0 2.0 0.00 0.00 0.00 60 1021.8
20211016162712 38 213 0.0 2.0 0.00 0.00 0.00 64 1022.0
20211016161710 35 213 0.0 0.0 0.00 0.00 0.00 71 1022.0
20211016160659 32 213 0.0 0.0 0.00 0.00 0.00 73 1022.1
20211016155642 30 213 0.0 0.0 0.00 0.00 0.00 73 1022.2
20211016154645 29 213 0.0 0.0 0.00 0.00 0.00 75 1022.2
20211016153659 27 213 0.0 0.0 0.00 0.00 0.00 76 1022.3
20211016152630 27 213 0.0 0.0 0.00 0.00 0.00 76 1022.3
20211016151647 26 213 0.0 0.0 0.00 0.00 0.00 76 1022.2
20211016150622 26 213 0.0 0.0 0.00 0.00 0.00 76 1022.2
20211016145550 25 213 0.0 0.0 0.00 0.00 0.00 77 1022.2
20211016144547 25 300 0.0 0.0 0.00 0.00 0.00 77 1022.2
20211016143540 25 300 0.0 0.0 0.00 0.00 0.00 77 1022.2
20211016142600 25 300 0.0 0.0 0.00 0.00 0.00 76 1022.3
20211016141530 25 300 0.0 0.0 0.00 0.00 0.00 76 1022.2
20211016140457 26 300 0.0 0.0 0.00 0.00 0.00 75 1022.3
20211016135423 26 300 0.0 0.0 0.00 0.00 0.00 76 1022.4
20211016134423 26 300 0.0 0.0 0.00 0.00 0.00 76 1022.3